Location: Caltech
(34.1382°N, 118.1253°W)
Time: 17:34:01
(UTC-07:00)

Oscar 10/S400 - Visible Passes

Search period start: 28 July 2014 00:00
Search period end: 07 August 2014 00:00
Orbit: 4043 x 35404 km, 26.2° (Epoch: 23 July)

Date Brightness Start Highest point End Pass type
(mag) Time Alt. Az. Time Alt. Az. Time Alt. Az.
28 Jul ? 01:16:35 10° W 01:52:51 75° S 11:31:32 10° SSE visible
29 Jul ? 00:32:12 10° W 01:02:39 76° S 10:42:25 10° SSE visible
29 Jul ? 23:47:57 10° W 00:14:13 76° S 09:50:48 10° SSE visible
30 Jul ? 23:03:47 10° WSW 23:27:05 74° S 08:55:45 10° SSE visible
31 Jul ? 22:19:40 10° WSW 22:40:53 71° SSE 07:54:57 10° SE visible
02 Aug ? 00:59:00 10° E 21:55:23 67° SSE 06:41:53 10° SE visible
02 Aug ? 20:51:32 10° SW 21:10:25 61° SSE 22:15:58 10° E visible
03 Aug ? 20:07:27 10° SW 20:25:48 54° SSE 21:10:29 10° E visible
04 Aug ? 19:23:20 10° SW 19:41:24 47° SSE 20:14:27 10° E visible
